Tracking 18840 objects as of 18-November-2017
HD Live streaming from Space Station
objects crossing your sky now

COSMOS 2115

Track COSMOS 2115 now!
10-day predictions
COSMOS 2115 is classified as:


NORAD ID: 21029
Int'l Code: 1990-114B
Perigee: 1,412.6 km
Apogee: 1,419.0 km
Inclination: 82.6 °
Period: 114.0 minutes
Semi major axis: 7786 km
RCS: 1.161 m2 (large)
Launch date: December 22, 1990
Source: Commonwealth of Independent States (former USSR) (CIS)
Launch site: PLESETSK MISSILE AND SPACE COMPLEX (PKMTR)
aabbcc
Your satellite tracking list
Your tracking list is empty




NASA's NSSDC Master Catalog

Two Line Element Set (TLE):
1 21029U 90114B   17321.80336333  .00000014  00000-0  18814-4 0  9993
2 21029  82.5711  58.1861 0004102 108.5877  10.9943 12.63461943240957
Source of the keplerian elements: AFSPC